TimeCDT,TemperatureF,Dew PointF,Humidity,Sea Level PressureIn,VisibilityMPH,Wind Direction,Wind SpeedMPH,Gust SpeedMPH,PrecipitationIn,Events,Conditions,WindDirDegrees,DateUTC
12:54 AM,26.1,19.0,75,30.40,10.0,NNW,4.6,-,N/A,,Clear,340,2012-10-12 05:54:00
1:54 AM,28.9,21.0,72,30.41,10.0,North,3.5,-,N/A,,Clear,350,2012-10-12 06:54:00
2:54 AM,28.0,21.0,75,30.42,10.0,North,4.6,-,N/A,,Clear,10,2012-10-12 07:54:00
3:54 AM,27.0,19.9,75,30.43,10.0,North,3.5,-,N/A,,Clear,360,2012-10-12 08:54:00
4:54 AM,25.0,19.9,81,30.45,10.0,Calm,Calm,-,N/A,,Clear,0,2012-10-12 09:54:00
5:54 AM,24.1,21.0,88,30.46,10.0,Calm,Calm,-,N/A,,Clear,0,2012-10-12 10:54:00
6:54 AM,23.0,19.9,88,30.48,10.0,Calm,Calm,-,N/A,,Clear,0,2012-10-12 11:54:00
7:54 AM,24.1,21.0,88,30.48,10.0,Calm,Calm,-,N/A,,Clear,0,2012-10-12 12:54:00
8:54 AM,33.1,25.0,72,30.50,10.0,Calm,Calm,-,N/A,,Clear,0,2012-10-12 13:54:00
9:54 AM,37.9,27.0,65,30.51,10.0,Calm,Calm,-,N/A,,Clear,0,2012-10-12 14:54:00
11:54 AM,45.0,21.9,40,30.49,10.0,ESE,4.6,-,N/A,,Clear,120,2012-10-12 16:54:00
12:54 PM,46.9,21.9,37,30.45,10.0,South,8.1,-,N/A,,Clear,190,2012-10-12 17:54:00
1:54 PM,48.9,19.9,32,30.42,10.0,SSW,6.9,-,N/A,,Clear,200,2012-10-12 18:54:00
2:54 PM,48.9,18.0,29,30.40,10.0,South,10.4,-,N/A,,Clear,180,2012-10-12 19:54:00
3:54 PM,50.0,19.0,29,30.38,10.0,SSW,10.4,16.1,N/A,,Clear,200,2012-10-12 20:54:00
5:54 PM,46.9,18.0,32,30.34,10.0,South,4.6,-,N/A,,Clear,190,2012-10-12 22:54:00
6:54 PM,41.0,19.9,43,30.33,10.0,SSE,3.5,-,N/A,,Clear,160,2012-10-12 23:54:00
7:54 PM,37.9,19.9,48,30.32,10.0,SE,4.6,-,N/A,,Clear,140,2012-10-13 00:54:00
9:54 PM,39.0,18.0,43,30.26,10.0,SE,5.8,-,N/A,,Clear,140,2012-10-13 02:54:00
10:54 PM,41.0,19.0,41,30.23,10.0,SE,6.9,-,N/A,,Clear,130,2012-10-13 03:54:00
11:54 PM,39.9,26.1,58,30.23,10.0,SE,5.8,-,N/A,,Clear,140,2012-10-13 04:54:00